This is the latest recevied weather packets stored in our database for station/object DB8NZ-11. If no packets are shown the sender has not sent any weather packets the latest 10 day(s).
| Time | Temp. | Humidity | Pressure | Rain* | Wind** | Luminosity | Snow |
|---|---|---|---|---|---|---|---|
| 1777739222 | 28.33° C | 17% | 1021.5 hPa | - | - | - | - |
| 1777738322 | 28.89° C | 18% | 1021.8 hPa | - | - | - | - |
| 1777737422 | 29.44° C | 17% | 1022 hPa | - | - | - | - |
| 1777736522 | 28.89° C | 18% | 1022.1 hPa | - | - | - | - |
| 1777735622 | 29.44° C | 18% | 1022.2 hPa | - | - | - | - |
| 1777734722 | 29.44° C | 18% | 1022.4 hPa | - | - | - | - |
| 1777733821 | 29.44° C | 19% | 1022.6 hPa | - | - | - | - |
| 1777732921 | 29.44° C | 20% | 1022.9 hPa | - | - | - | - |
| 1777732021 | 29.44° C | 20% | 1022.9 hPa | - | - | - | - |
| 1777731513 | 29.44° C | 20% | 1023 hPa | - | - | - | - |
| 1777730613 | 30° C | 18% | 1023.2 hPa | - | - | - | - |
| 1777729713 | 30° C | 19% | 1023.3 hPa | - | - | - | - |
| 1777728813 | 31.11° C | 18% | 1023.5 hPa | - | - | - | - |
| 1777727913 | 30.56° C | 17% | 1023.8 hPa | - | - | - | - |
| 1777727013 | 31.11° C | 17% | 1024 hPa | - | - | - | - |
| 1777726113 | 31.11° C | 17% | 1024.2 hPa | - | - | - | - |
| 1777725212 | 31.11° C | 18% | 1024.4 hPa | - | - | - | - |
| 1777724312 | 30.56° C | 18% | 1024.6 hPa | - | - | - | - |
| 1777723412 | 29.44° C | 19% | 1024.8 hPa | - | - | - | - |
| 1777722512 | 28.89° C | 22% | 1024.9 hPa | - | - | - | - |
| 1777721612 | 28.89° C | 22% | 1025.4 hPa | - | - | - | - |
| 1777720712 | 28.89° C | 21% | 1025.6 hPa | - | - | - | - |
| 1777719812 | 28.89° C | 22% | 1025.7 hPa | - | - | - | - |
| 1777718912 | 29.44° C | 22% | 1025.9 hPa | - | - | - | - |
| 1777718011 | 28.33° C | 22% | 1026.2 hPa | - | - | - | - |
* Rain since midnight (hover to see other rain measurements)
** Current wind speed in m/s (hover to see current wind gust speed)